Simultaneous Nadir Overpasses (SNOs) Predictions

Prediction of SNOs between GOES-17 and AQUA Satellite Orbit:

Table of predicted SNOs for the next 14.0 days since TLE Epoch: 5/3/2019
Index Date Time (GOES-17) GOES-17 Lat,Lon AQUA Lat,Lon Distance(km) Time Diff (sec)
1 05/03/2019 22:58:27 0.00,-137.18 -0.76,-140.89 420.95 80
2 05/05/2019 22:46:15 -0.00,-137.19 -0.14,-137.93 84.47 80
3 05/07/2019 22:36:43 -0.00,-137.18 0.49,-134.98 251.06 80
4 05/08/2019 10:57:58 0.00,-137.20 0.62,-140.13 333.01 80
5 05/10/2019 10:43:06 -0.00,-137.18 -0.01,-137.17 1.60 80
6 05/12/2019 10:30:54 -0.00,-137.16 -0.65,-134.22 334.89 80
7 05/12/2019 22:52:18 0.00,-137.12 -0.46,-139.41 259.15 80
8 05/14/2019 22:42:45 0.00,-137.10 0.12,-136.44 74.31 80
9 05/16/2019 22:30:33 0.01,-137.07 0.76,-133.48 407.25 80
10 05/17/2019 10:51:48 -0.01,-137.09 0.34,-138.64 176.64 80




NCC Satellite Simultaneous Nadir Overpasses (SNOs) Prediction Service
